Location: Fennell Observatory
(35.2597°N, 89.5125°W)
Time: 12:09:38
(UTC-05:00)

Daily predictions for brighter satellites

Satellite Brightness Start Highest point End
(mag) Time Altitude Azimuth Time Altitude Azimuth Time Altitude Azimuth
FENGYUN 3A 3.7 20:37:20 10° SSE 20:42:45 84° ENE 20:48:12 10° N
Meteor 1-24 Rocket 4.2 20:40:00 10° SSW 20:45:37 67° W 20:51:05 10° N
Cosmos 371 Rocket 3.7 20:42:12 10° N 20:46:51 47° ENE 20:51:27 10° SE
CZ-4 DEB 2.7 20:45:43 10° SSE 20:48:54 72° ENE 20:52:06 10° N
deb Chang Zheng 4 4.1 20:45:42 10° NNE 20:49:45 39° E 20:53:49 10° S
ALOS 2.5 20:45:36 10° S 20:50:16 75° WSW 20:54:57 10° NNW
USA 186 1.4 20:48:50 10° S 20:51:08 61° WSW 20:53:33 10° NNW
Cosmos 1939 Rocket 4.0 20:48:07 10° SE 20:51:30 27° ENE 20:54:50 10° NNE
Cosmos 1766 Rocket 4.1 20:48:16 10° SSW 20:52:39 64° W 20:57:02 10° N
DELTA 2 R/B(2) 2.6 20:51:53 10° WSW 20:53:30 86° SSE 20:55:17 10° ENE
Delta 2 Rocket 3.1 20:49:56 10° WSW 20:53:31 49° SSE 20:56:50 10° E
Cosmos 1674 4.0 20:54:04 10° SE 20:57:08 23° E 21:00:12 10° NE
Envisat 3.9 20:53:56 10° SE 20:58:26 34° ENE 21:02:59 10° N
GPS 2-04 Rocket1 3.3 20:54:38 10° W 20:58:55 52° SSW 21:02:52 11° SE
SPOT 5 4.1 20:55:30 10° ESE 20:59:06 24° ENE 21:02:51 10° NNE
Cosmos 1833 4.5 20:58:01 10° S 21:03:27 46° ESE 21:08:51 10° NE
ERS-1 Rocket 3.0 21:00:10 10° SSE 21:05:09 69° ENE 21:10:10 10° N
Tiangong 1 2.7 21:03:32 10° S 21:05:37 17° SE 21:06:59 13° ESE
H-2A R/B 3.9 21:06:05 10° S 21:09:45 42° W 21:13:24 10° NNW
DELTA 2 R/B (1) 4.1 21:04:29 10° WNW 21:09:58 57° N 21:15:26 10° E
Cosmos 1437 Rocket 3.5 21:06:39 10° N 21:10:11 34° ENE 21:13:01 14° SE
Cosmos 1437 4.4 21:08:49 14° SE 21:10:21 19° E 21:12:45 10° NE
Cosmos 1515 Rocket 3.8 21:06:03 10° N 21:10:23 51° E 21:14:29 11° SSE
Cosmos 1777 Rocket 4.0 21:09:10 10° S 21:14:25 75° ESE 21:19:40 10° NNE
Nimbus 7 Rocket 4.4 21:10:54 10° NNE 21:16:43 63° ESE 21:22:30 10° S
H-2A R/B 2.3 21:17:06 10° SSW 21:18:36 13° S 21:18:41 13° S
SJ-11-01 4.3 21:14:25 10° SSE 21:19:07 88° W 21:23:52 10° NNW
Cosmos 2266 Rocket 4.1 21:13:58 10° SSE 21:20:07 57° E 21:26:12 10° NNE
Meteor 1-21 Rocket 4.2 21:14:57 10° S 21:20:30 89° W 21:26:04 10° N
AVUM R/B 2.1 21:18:29 10° SSW 21:20:41 77° ESE 21:23:04 10° NNE
Cosmos 2151 3.7 21:18:32 14° SSE 21:21:40 34° E 21:25:29 10° NNE
NOSS 3-1 (C) 4.0 21:19:18 10° S 21:24:18 31° ESE 21:29:39 10° NE
YAOGAN 6 4.1 21:23:27 17° ESE 21:25:02 22° ENE 21:27:53 10° NNE
Cosmos 1553 Rocket 4.1 21:19:03 10° N 21:25:28 84° W 21:31:46 10° S
Cosmos 405 3.7 21:22:28 10° N 21:25:52 36° ENE 21:27:44 21° SE
Cosmos 1328 4.5 21:28:08 19° SE 21:30:19 35° E 21:33:56 10° NNE
H-2A R/B 4.1 21:29:47 10° E 21:32:10 13° ENE 21:34:35 10° NE
CZ-2C R/B 1.6 21:34:54 20° SW 21:35:23 24° W 21:36:49 10° NW
Cosmos 1151 Rocket 3.1 21:31:46 10° N 21:36:01 56° E 21:38:40 22° SSE
Cosmos 2219 Rocket 4.4 21:35:55 10° NE 21:37:28 11° NE 21:39:03 10° ENE
MetOp-A 4.4 21:33:53 19° SE 21:37:32 52° ENE 21:42:43 10° N
ARGOS 4.2 21:37:03 19° ESE 21:39:56 31° ENE 21:44:38 10° N
SPOT 1/Viking Rocket 4.2 21:41:07 22° SE 21:43:51 39° ENE 21:48:37 10° N
Cosmos 1680 Rocket 3.9 21:41:46 10° N 21:46:53 50° ENE 21:49:36 26° SE
Cosmos 2058 3.4 21:46:02 28° SE 21:47:34 40° E 21:51:25 10° NNE
Cosmos 923 Rocket 4.0 21:45:25 10° NNW 21:50:37 73° ENE 21:53:33 26° SSE
H-2A R/B 3.0 21:48:07 12° S 21:52:07 48° W 21:56:30 10° NNW
Cosmos 2219 3.2 21:47:57 10° S 21:53:38 67° ESE 21:59:21 10° NNE
CZ-4B R/B 3.5 21:49:37 10° NNE 21:54:52 66° ESE 21:58:43 18° S
Cosmos 1707 Rocket 4.4 21:53:02 10° NNE 21:57:01 34° E 21:58:03 30° ESE
Terra 3.6 21:55:46 16° E 21:57:03 17° ENE 22:00:07 10° NNE
SL-14 R/B 4.0 21:56:58 32° ESE 21:57:22 33° E 22:00:58 10° NNE
Cosmos 1666 Rocket 4.2 21:56:35 32° ESE 21:57:39 37° E 22:01:44 10° NNE
Cosmos 1898 Rocket 4.1 21:56:18 29° SE 21:57:48 35° E 22:02:30 10° NE
CZ-4 SHROUD 3.4 21:57:27 37° S 21:58:30 68° WSW 22:01:38 10° NNW
Nadezhda 2 Rocket 4.4 21:54:31 14° S 21:59:55 79° E 22:06:02 10° N
Cosmos 1726 3.3 21:59:23 10° NNE 22:02:39 27° ENE 22:02:46 27° E
Cosmos 2322 3.7 21:59:41 10° NNW 22:05:26 81° ENE 22:08:14 31° SSE
Cosmos 2237 Rocket 4.3 22:03:30 10° NNE 22:06:06 13° NE 22:08:42 10° E
Cosmos 2322 Rocket 3.8 22:04:36 10° NW 22:09:21 29° WSW 22:13:59 10° SSW
Cosmos 773 Rocket 4.5 22:04:42 10° NNW 22:09:46 55° WSW 22:12:51 23° S
OAO 2 Rocket 3.7 22:05:05 10° SW 22:10:08 44° SSE 22:11:37 35° ESE
CZ-4 R/B 3.8 22:09:25 10° NNE 22:14:22 72° ESE 22:16:33 33° S
NOAA 11 4.2 22:16:39 37° SE 22:18:46 69° ENE 22:24:12 10° N
SL-16 R/B 3.9 22:14:49 10° NW 22:19:23 26° WSW 22:23:46 11° SSW
Cosmos 2360 Rocket 2.3 22:14:13 10° NNW 22:19:51 74° WSW 22:22:22 34° S
NOSS 3-1 (A) 3.2 22:21:17 11° SSW 22:26:53 76° ESE 22:33:12 10° NE
Meteor 1-11 4.2 22:25:07 26° S 22:28:34 85° W 22:34:20 10° N
USA 32 4.2 22:27:53 10° N 22:33:04 56° E 22:34:01 48° ESE
Meteor 1-4 Rocket 3.4 22:31:07 10° N 22:34:10 40° NE 22:34:10 40° NE
Delta 2 Rocket 3.4 22:32:26 10° W 22:35:08 51° W 22:35:08 51° W
SPOT 5 4.4 22:34:33 17° SW 22:37:01 27° W 22:41:00 10° NW
Cosmos 1626 4.0 22:40:11 20° NE 22:40:11 20° NE 22:41:51 10° NNE
Cosmos 2242 Rocket 3.6 22:34:28 10° N 22:38:54 60° E 22:39:05 60° E
SL-08 RB Rocket 3.7 22:40:45 60° SSW 22:41:29 76° WSW 22:45:59 10° NNW
Tiangong 1 3.8 22:38:53 10° WSW 22:39:15 13° WSW 22:39:15 13° WSW
Cosmos 2227 Rocket 2.6 22:42:28 41° E 22:42:28 41° E 22:47:36 10° NE
DELTA 2 DEB (DPAF) 4.0 22:42:52 71° SSE 22:43:19 84° E 22:47:50 10° N
Cosmos 1300 3.1 22:42:09 10° NNW 22:45:55 54° W 22:46:04 53° WSW
ATLAS 2AS CENTAUR R/B 3.2 22:48:10 42° SE 22:49:15 45° ESE 22:56:39 10° NE
SL-23 DEB 4.0 22:48:08 10° NW 22:51:39 59° NW 22:51:39 59° NW
CARTOSAT-1 3.5 22:54:18 71° NE 22:54:18 71° NE 22:58:26 10° N
Cosmos 2333 Rocket 3.0 22:48:53 10° N 22:54:11 37° ENE 22:55:11 34° E
H-2A R/B 4.0 22:50:34 10° WSW 22:55:23 54° SSE 23:28:34 10° E
H-2A R/B 4.0 22:50:34 10° WSW 22:55:23 54° SSE 23:28:35 10° E
Cosmos 1862 Rocket 4.5 22:51:24 10° N 22:54:46 36° ENE 22:54:46 36° ENE
DELTA 2 R/B (1) 3.4 22:51:03 10° WNW 22:56:36 75° SSW 22:57:09 68° SSE
Sich 1 3.9 22:56:58 37° WSW 22:58:06 45° W 23:02:20 10° N
SL-16 R/B 4.2 22:54:49 10° NNE 22:58:07 15° NE 22:59:45 14° ENE
Cosmos 1633 Rocket 3.9 22:58:08 40° WSW 22:59:04 46° W 23:03:18 10° N
Cosmos 1937 Rocket 3.5 22:58:30 54° SSW 22:59:43 80° WNW 23:04:57 10° NNE
CZ-4C R/B 4.3 23:05:06 38° WNW 23:05:06 38° WNW 23:07:40 10° NNW
COSMOS 2428 2.8 23:00:15 10° NNW 23:05:52 63° WSW 23:06:47 55° SSW
Cosmos 1455 3.5 23:05:07 10° N 23:07:33 35° NNE 23:07:33 35° NNE
Cosmos 2297 Rocket 2.6 23:10:25 47° E 23:10:25 47° E 23:15:09 10° NNE
H-2A R/B 2.1 23:10:13 65° SSW 23:10:51 73° WSW 23:16:16 10° NNW
ATLAS 3B R/B 4.2 23:07:23 10° N 23:13:04 26° NE 23:16:06 19° E
Cosmos 990 Rocket 3.8 23:13:39 81° SW 23:13:52 84° WNW 23:19:02 10° NNE
Lacrosse 4 Rocket 4.0 23:17:10 10° NNE 23:19:18 13° NE 23:19:35 13° ENE
Cosmos 1241 Rocket 4.4 23:20:29 53° SW 23:22:03 84° WNW 23:28:19 10° NNE
Cosmos 2219 Rocket 2.0 23:16:37 10° NNW 23:22:14 85° ENE 23:22:26 83° ESE
Spot 4 4.2 23:31:38 60° WNW 23:31:38 60° WNW 23:36:06 10° NNW
Cosmos 292 Rocket 4.4 23:28:04 10° NNW 23:32:10 50° WNW 23:32:10 50° WNW
Terra 2.6 23:34:39 42° W 23:34:39 42° W 23:38:56 10° NNW
Nadezhda 1 Rocket 4.1 23:30:28 10° NNW 23:36:27 62° W 23:37:15 56° SW
Cosmos 1980 3.6 23:32:02 10° NNW 23:37:35 81° NE 23:37:35 81° NE
COSMOS 2455 3.7 23:39:33 10° N 23:45:09 38° ENE 23:45:49 37° ENE
Cosmos 1125 Rocket 3.8 23:46:29 60° NE 23:46:29 60° NE 23:50:52 10° NNE
Cosmos 2082 4.4 23:49:09 44° WSW 23:50:18 51° WNW 23:55:53 10° N
Cosmos 2237 Rocket 2.2 23:45:09 10° NNW 23:50:31 78° NW 23:50:31 78° NW
Cosmos 1709 Rocket 3.9 23:52:27 73° WSW 23:52:45 75° W 23:58:53 10° N
SeaSat 1 3.0 23:55:21 54° NNE 23:55:21 54° NNE 23:59:32 10° NNW
